Dewpoint
21 18 16 16 16 15 15 15 14 15 16 17 17 16 16 18 17 18 19 22 25 28 28 29 31 35 40 53 53 55 56 61 56 55 56 59 63 65 64 64 66 64 65 66
17 15 16 16 15 15 15 16 15 15 16 17 17 15 17 17 18 19 20 22 23 27 29 28 31 38 45 48 51 55 55 57 57 60 65 58 63 60 66 65 67 65 64 66
15 13 13 14 14 14 15 16 16 15 16 17 16 15 15 16 18 20 20 25 25 26 27 30 36 42 44 46 48 49 53 55 57 60 59 63 64 65 63 64 66 68 67 67
14 14 15 15 14 14 14 14 15 15 17 12 16 10 15 14 17 19 21 23 24 24 29 35 40 41 44 44 45 48 52 54 52 56 59 62 57 60 60 63 65 67 70 68
13 13 14 15 14 15 16 16 17 18 18 17 14 12 13 16 16 19 21 21 23 25 30 34 38 41 42 44 45 48 52 54 55 57 58 57 59 56 58 58 66 73 73 70
17 16 16 15 16 17 17 19 19 19 17 13 13 11 5 10 15 20 19 15 20 28 31 36 37 39 41 43 44 48 51 53 54 55 56 59 60 62 55 60 62 64 64 68
17 16 17 18 17 22 21 21 14 8 10 10 16 14 13 17 17 16 17 19 21 24 32 34 35 37 41 43 46 49 50 53 54 54 55 56 59 62 65 65 55 62 61 62
16 14 17 20 19 18 19 20 16 13 7 5 13 12 14 17 17 18 21 26 27 31 30 33 35 39 40 43 46 49 50 51 53 54 55 55 57 54 53 60 57 55 59 64
23 19 19 21 21 22 19 20 20 18 18 14 15 15 17 18 18 19 22 27 27 30 32 33 35 40 42 45 47 47 48 50 51 52 55 56 56 59 57 63 66 59 66 62
24 23 21 21 25 24 23 20 19 23 20 17 10 11 9 17 17 19 22 25 27 32 28 32 36 40 43 44 46 46 46 45 48 51 52 53 55 56 57 61 64 65 67 68
25 26 21 25 23 20 22 20 22 25 25 19 12 8 22 21 23 26 26 27 30 29 29 33 35 37 39 41 41 44 45 46 48 49 51 54 55 56 57 59 59 62 67 66
26 28 22 20 21 23 23 21 22 25 20 21 18 16 23 25 24 27 28 28 29 31 32 34 35 37 38 41 39 40 44 45 47 47 50 53 55 57 60 60 62 64 65 65
29 27 23 20 21 27 26 24 24 26 28 25 21 17 24 25 26 28 30 30 31 34 35 36 35 36 38 38 39 39 42 44 46 46 48 52 54 57 60 62 63 62 64 64
34 31 26 22 19 26 25 22 23 25 29 24 19 20 24 26 27 30 32 33 34 35 37 36 37 37 37 39 41 40 41 44 47 46 48 51 54 56 60 63 63 62 61 61
34 30 28 25 23 23 22 22 21 22 26 22 19 21 26 28 29 30 32 33 34 35 35 36 37 38 39 41 43 42 42 44 46 46 47 50 53 55 59 62 62 62 62 61
29 26 27 23 21 21 23 26 23 21 21 20 20 22 24 26 27 29 30 32 33 34 35 37 38 39 40 42 44 43 43 45 46 46 47 49 51 54 58 63 62 63 62 64
28 30 29 24 21 21 23 21 21 21 21 22 21 23 25 27 28 31 32 33 34 35 36 37 39 40 42 44 45 44 45 46 46 47 47 48 51 53 57 61 61 64 67 70
29 28 31 25 23 22 19 21 25 25 25 25 25 26 26 28 31 31 31 32 35 36 37 39 40 41 43 45 49 49 49 48 48 45 45 48 51 53 58 61 62 67 70 71
30 30 30 28 25 23 22 25 25 27 26 26 26 26 30 32 32 33 31 33 36 38 40 41 41 42 44 43 47 48 48 48 47 47 48 51 52 54 60 59 65 69 70 70
38 36 32 32 28 25 29 29 33 31 26 35 35 34 34 33 27 26 35 39 39 41 42 42 41 41 42 45 47 46 47 48 49 51 52 52 52 57 60 64 68 69 70 69
33 33 30 27 31 28 29 34 36 31 31 37 35 34 34 36 37 41 41 40 42 41 40 40 39 39 42 44 45 44 46 48 50 51 51 55 60 61 63 66 66 67 67 67
33 31 32 34 31 28 35 34 32 36 39 40 40 38 37 37 39 38 38 37 37 37 36 36 36 37 40 43 44 44 47 49 50 60 61 62 63 63 64 65 66 66 66 66
32 31 34 33 33 35 37 38 40 40 41 39 39 39 40 38 37 36 34 35 34 35 35 35 35 37 39 41 46 46 48 49 51 60 62 64 64 64 65 65 64 64 66 63
31 32 31 33 32 34 38 40 40 39 39 40 39 38 38 37 37 34 35 37 37 39 37 37 37 38 39 41 43 47 47 49 52 58 61 63 64 64 65 66 65 64 63 62
32 35 35 33 33 36 37 39 40 41 42 40 34 34 35 36 37 38 39 39 37 38 37 37 38 38 39 41 44 45 48 48 52 59 61 62 62 62 61 60 64 63 66 60
37 36 34 33 36 35 36 39 42 42 38 36 39 39 40 39 38 37 36 36 37 37 37 38 39 40 41 43 43 44 45 48 53 59 60 58 59 60 61 61 57 45 48 47
Lifted_Index
6 5 5 5 5 5 5 5 5 5 5 5 5 5 5 5 5 5 6 5 5 5 6 7 7 7 7 6 6 6 5 4 2 2 1 -0 -2 -2 -3 -3 -2 -2 -2 -2
5 5 5 5 5 5 5 5 5 5 5 6 5 5 5 5 5 5 6 5 5 5 6 6 7 6 6 6 6 6 6 4 3 2 1 0 -1 -2 -3 -3 -3 -3 -3 -3
5 5 5 5 5 5 4 4 5 5 5 5 5 5 5 5 5 5 6 6 5 6 6 6 6 5 6 6 6 6 6 6 5 4 2 1 0 -1 -2 -3 -4 -4 -5 -5
5 5 5 5 4 4 4 4 5 5 5 5 4 4 4 5 5 5 5 5 6 6 6 6 5 5 5 6 6 6 6 6 6 5 4 2 1 0 -1 -3 -4 -6 -6 -6
4 4 4 4 4 4 4 4 4 4 4 4 4 4 4 4 5 5 5 5 6 6 6 6 5 5 5 6 6 6 6 5 5 5 4 3 2 1 -0 -2 -4 -6 -7 -7
3 4 4 3 3 3 3 3 3 3 3 3 3 4 3 4 4 4 5 5 6 6 5 5 6 6 6 6 6 5 5 5 5 5 4 3 2 1 -0 -1 -3 -5 -6 -7
3 2 3 3 2 2 2 1 1 1 1 1 2 3 3 3 3 4 5 5 6 5 5 5 6 6 6 6 5 5 5 5 4 4 4 4 3 1 -0 -1 -2 -3 -5 -5
2 2 2 2 2 1 0 0 0 0 0 1 2 2 2 3 3 4 5 5 5 5 5 6 6 6 6 5 5 5 5 5 5 4 4 4 3 2 1 -0 -1 -2 -4 -4
2 2 2 2 2 1 0 0 1 1 1 1 1 2 2 2 3 4 4 4 5 5 6 6 6 5 5 5 5 5 6 6 5 5 4 4 3 3 2 1 -1 -2 -3 -4
2 2 2 2 2 2 1 1 1 1 1 1 1 1 1 1 2 3 3 4 4 5 5 5 5 5 5 5 6 6 7 7 6 6 5 4 4 3 2 1 -0 -1 -3 -3
2 2 2 2 2 2 1 1 1 1 0 0 1 1 1 1 1 2 3 3 3 4 4 4 3 4 4 5 6 7 7 7 7 7 6 5 4 3 3 2 0 -1 -3 -3
2 2 2 2 2 1 1 1 1 0 0 0 1 1 1 1 1 2 2 2 2 3 3 2 2 2 2 4 5 7 7 7 7 7 6 5 4 3 2 1 -0 -1 -3 -3
2 2 2 1 1 1 1 1 0 0 0 0 1 1 1 1 1 2 1 1 1 1 1 1 1 1 1 2 3 5 6 7 7 7 7 6 5 4 2 0 -1 -2 -2 -3
2 1 1 1 1 0 1 1 0 0 0 1 1 1 1 1 1 1 1 1 0 0 0 0 0 0 0 1 2 3 5 6 7 7 7 7 6 4 2 -0 -1 -2 -2 -2
2 2 1 1 1 1 1 1 0 0 0 1 1 1 1 1 1 1 0 0 -0 -0 -1 -0 -0 0 1 1 1 2 4 5 6 7 8 7 6 5 2 -0 -1 -2 -2 -2
2 2 2 1 1 1 1 1 0 0 0 1 1 1 1 1 1 0 0 -0 -0 -0 -1 -1 -0 0 1 1 2 3 4 4 5 7 8 8 7 5 3 -0 -1 -2 -3 -4
2 2 1 1 1 1 1 1 0 -0 -0 0 0 0 0 0 0 0 0 -0 -0 -0 -0 -0 -0 -0 1 2 3 3 4 4 5 6 7 8 7 5 2 -0 -2 -3 -5 -6
2 2 1 1 1 1 1 -0 -1 -1 -1 -1 -0 -0 0 0 0 0 0 0 -0 -0 0 -0 -0 0 1 2 3 4 5 6 6 6 6 7 6 4 2 -1 -2 -4 -6 -7
2 2 2 1 1 0 0 -0 -1 -1 -1 -1 -0 -0 0 0 1 1 0 0 0 0 0 0 0 1 2 3 5 6 7 7 6 5 5 6 5 3 1 -2 -4 -6 -7 -7
1 2 2 1 1 0 -0 -0 -0 -0 0 0 0 0 1 1 1 1 1 1 1 1 1 1 1 2 3 4 6 7 7 7 6 4 4 4 3 1 -1 -3 -5 -6 -7 -7
1 1 1 1 0 -0 -0 -0 -0 0 0 0 1 1 1 1 1 1 1 2 2 2 2 2 3 4 5 5 6 7 7 6 5 3 2 2 1 -1 -3 -4 -5 -5 -6 -6
1 1 1 0 0 0 0 0 1 1 1 1 1 2 2 2 2 2 2 3 3 4 4 4 5 5 6 6 6 7 6 5 3 0 -1 -2 -3 -3 -4 -5 -5 -5 -5 -5
1 1 1 1 1 1 1 1 1 1 2 2 2 2 3 3 3 4 4 5 6 6 6 6 7 7 7 7 6 6 5 3 1 -2 -4 -5 -5 -5 -5 -5 -5 -5 -4 -4
2 2 2 2 1 1 1 1 1 2 2 3 3 4 4 5 5 6 6 7 8 9 9 8 8 8 8 7 7 6 4 1 -1 -3 -5 -6 -6 -6 -5 -5 -5 -5 -4 -4
3 3 2 2 2 2 2 2 2 2 3 4 5 5 6 7 7 8 8 9 10 10 10 10 9 9 8 7 7 6 3 0 -1 -3 -4 -5 -6 -6 -5 -5 -5 -5 -4 -4
3 3 2 2 2 2 2 3 3 3 4 5 6 7 7 8 9 9 9 10 10 11 11 10 9 9 8 7 7 5 2 0 -1 -2 -4 -5 -5 -5 -5 -5 -4 -4 -4 -4